CAPE
0 0 0 0 0 0 0 0 0 0 0 0 0 0 0 0 0 2 1 6 10 16
0 0 0 0 0 0 0 0 0 0 0 0 0 0 0 0 0 2 4 2 2 12
0 0 0 0 0 0 0 0 0 0 0 0 0 0 0 0 0 2 0 0 0 1
0 0 0 0 0 0 0 0 0 0 0 0 0 0 0 0 0 0 0 0 0 0
0 0 0 0 0 0 0 0 0 0 0 0 0 0 0 0 0 0 0 0 0 0
0 0 0 0 0 0 0 0 0 0 0 0 0 0 0 0 0 0 0 0 0 0
0 0 0 0 0 0 0 0 0 0 0 0 0 0 0 0 0 0 1 0 0 0
0 0 0 0 0 0 0 0 0 0 0 0 0 0 0 0 1 2 0 0 0 1
0 0 0 0 0 0 0 0 0 1 0 0 0 0 1 1 1 1 0 0 0 0
0 0 0 0 0 1 1 1 1 1 0 0 1 2 2 1 1 0 0 0 0 0
0 0 0 0 0 2 2 1 1 1 1 1 1 0 0 0 0 0 0 0 0 0
0 0 0 1 2 2 2 0 0 0 0 0 1 0 0 0 0 0 0 0 0 0
0 0 0 0 2 1 1 0 0 0 0 0 0 0 0 0 0 0 0 0 0 0
0 0 0 1 1 1 0 0 0 0 0 0 0 0 0 0 0 0 0 0 0 0
CIN
0 0 0 0 0 0 0 0 0 0 0 0 0 0 0 0 0 0 -2 -1 -1 -2
0 0 0 0 0 0 0 0 0 0 0 0 0 0 0 0 0 0 0 -4 -10 -6
0 0 0 0 0 0 0 0 0 0 0 0 0 0 0 0 0 0 -3 0 0 0
0 0 0 0 0 0 0 0 0 0 0 0 0 0 0 0 0 0 0 0 0 0
0 0 0 0 0 0 0 0 0 0 0 0 0 0 0 0 0 0 0 0 0 0
0 0 0 0 0 0 0 0 0 0 0 0 0 0 0 0 0 0 0 0 0 0
0 0 0 0 0 0 0 0 0 0 0 0 0 0 0 0 0 0 0 0 0 0
0 0 0 0 0 0 0 0 0 0 0 0 0 0 0 0 0 0 0 0 0 0
0 0 0 0 0 0 0 0 0 0 0 0 0 -1 0 0 0 0 0 0 0 0
0 0 -1 0 0 0 0 0 0 0 0 0 0 0 0 0 0 0 0 0 0 0
0 0 -1 0 0 0 0 0 0 0 0 0 0 0 0 0 0 0 0 0 0 0
0 0 0 0 0 0 0 0 0 0 0 0 0 0 0 0 0 0 0 0 0 0
0 0 0 0 0 0 0 0 0 0 0 0 0 0 0 0 0 0 0 0 0 0
-1 -1 0 0 0 0 0 0 0 0 0 0 0 0 0 0 0 0 0 0 0 0
Wind_Speed
23 24 25 27 28 29 29 29 28 29 29 29 30 30 30 30 29 28 28 28 26 24
25 26 27 28 28 29 29 29 29 29 30 30 30 30 30 29 29 29 28 27 27 25
25 26 28 29 30 29 29 29 30 30 29 29 29 29 28 29 28 27 26 25 24 22
27 27 28 28 29 30 29 30 30 30 30 29 29 28 27 26 26 26 24 24 22 21
26 26 27 28 29 29 30 29 30 30 30 29 28 28 27 27 26 25 24 23 22 20
26 27 28 28 29 29 29 28 28 28 29 28 27 27 25 25 24 23 23 22 21 21
24 25 26 27 28 28 28 28 27 26 26 26 25 24 23 22 22 22 21 20 19 19
22 23 24 25 25 25 26 26 25 25 24 23 23 22 21 19 19 19 18 18 18 17
21 22 23 24 24 23 23 23 23 23 22 22 21 19 18 17 16 15 15 14 14 14
21 21 21 23 24 25 24 23 22 20 20 19 18 17 16 15 14 12 12 12 13 14
21 21 21 21 22 22 23 22 21 18 17 16 16 15 12 11 11 11 11 12 13 14
22 22 21 21 20 19 20 19 18 17 15 14 14 11 10 9 9 10 11 13 14 15
18 19 19 19 17 17 15 15 14 14 14 12 10 8 9 10 12 12 13 14 14 15
17 17 16 16 15 14 15 12 12 12 12 11 10 9 11 11 14 15 14 15 16 16
Wind_Direction
290 293 296 297 298 299 299 301 304 305 306 307 309 310 310 311 311 312 312 311 311 311
290 293 295 298 300 300 301 302 303 305 306 307 308 310 310 311 311 313 313 314 314 315
290 294 295 298 298 301 303 304 304 305 307 308 309 310 311 311 313 313 314 316 318 320
288 292 295 298 300 301 303 304 304 304 306 308 309 312 312 313 313 314 315 317 318 319
293 296 299 300 303 304 304 305 303 304 303 305 307 310 312 312 314 313 315 316 317 319
293 297 299 302 304 306 305 306 306 305 304 305 307 308 311 313 314 315 317 318 318 318
298 301 302 304 305 306 307 307 307 308 308 309 309 310 311 313 314 316 318 320 321 322
303 305 308 310 310 310 309 309 310 309 310 312 312 311 313 314 316 318 322 323 324 331
306 308 310 311 311 313 313 313 311 309 311 312 314 314 313 314 317 320 323 330 334 339
308 309 311 312 311 309 308 310 310 312 312 314 316 318 319 319 321 325 332 331 335 340
309 310 313 313 313 313 309 308 307 309 312 315 318 318 324 326 327 335 339 337 337 337
309 309 310 311 314 317 312 310 309 310 312 316 314 322 325 342 344 339 334 329 331 332
315 311 310 312 315 315 318 313 315 315 309 312 316 325 329 327 325 327 326 326 329 331
315 314 314 314 318 318 312 320 321 314 306 307 312 319 316 321 315 318 321 320 322 327